Cambridge, MN

12:25 PM CDT on April 30, 2017 (GMT -0500)
Cambridge Municipal

Weather History for KCBG - March, 2013

Change the Weather History Date:

Friday, March 29, 2013

  Actual Average Record
Temperature  
Mean Temperature 35 °F -  
Max Temperature 46 °F 42 °F 71 °F (2005)
Min Temperature 24 °F 26 °F 0 °F (1969)
Degree Days  
Heating Degree Days 30    
Moisture  
Dew Point 31 °F    
Average Humidity 77    
Maximum Humidity 87    
Minimum Humidity 70    
Precipitation  
Precipitation 0.01 in - - ()
Sea Level Pressure  
Sea Level Pressure 30.18 in    
Wind  
Wind Speed 3 mph (SE)    
Max Wind Speed 12 mph    
Max Gust Speed -    
Visibility 10 miles    
Events Rain    
Averages and records for this station are not official NWS values.
T = Trace of Precipitation, MM = Missing Value Source: NWS Daily Summary

Daily Weather History Graph

Daily Weather History Graph

Search for Another Location

Airport or City:

Trip Planner

Search our weather history database for the weather conditions in past years. The results will help you decide how hot, cold, wet, or windy it might be!

Date:

Astronomy

Mar. 29, 2013 Rise Set
Actual Time 6:58 AM CDT 7:37 PM CDT
Civil Twilight 6:28 AM CDT 8:07 PM CDT
Nautical Twilight 5:53 AM CDT 8:43 PM CDT
Astronomical Twilight 5:16 AM CDT 9:20 PM CDT
Moon 10:49 PM CDT (3/29) 7:59 AM CDT (3/29)
Length of Visible Light 13h 39m
Length of Day
12h 39m
Waning Gibbous, 93% of the Moon is Illuminated
Mar 29
Waning Gibbous
Apr 2
Last Quarter
Apr 10
New
Apr 18
First Quarter
Apr 25
Full

Hourly Weather History & Observations

Time (CDT) Temp. Windchill Dew Point Humidity Pressure Visibility Wind Dir Wind Speed Gust Speed Precip Events Conditions
12:15 AM 28.4 °F - 23.0 °F 80% 30.26 in 10.0 mi Calm Calm - N/A   Clear
12:36 AM 30.2 °F - 23.0 °F 75% 30.26 in 10.0 mi Calm Calm - N/A   Clear
12:56 AM 28.4 °F - 21.2 °F 74% 30.26 in 10.0 mi Calm Calm - N/A   Clear
1:15 AM 28.4 °F - 21.2 °F 74% 30.26 in 10.0 mi Calm Calm - N/A   Clear
1:36 AM 28.4 °F - 23.0 °F 80% 30.26 in 10.0 mi Calm Calm - N/A   Clear
1:56 AM 26.6 °F - 21.2 °F 80% 30.26 in 10.0 mi Calm Calm - N/A   Clear
2:15 AM 26.6 °F - 21.2 °F 80% 30.26 in 10.0 mi Calm Calm - N/A   Clear
2:36 AM 26.6 °F - 21.2 °F 80% 30.26 in 10.0 mi Calm Calm - N/A   Clear
2:56 AM 26.6 °F - 21.2 °F 80% 30.26 in 10.0 mi Calm Calm - N/A   Clear
3:15 AM 24.8 °F - 21.2 °F 86% 30.26 in 10.0 mi Calm Calm - N/A   Scattered Clouds
3:36 AM 26.6 °F - 21.2 °F 80% 30.25 in 10.0 mi Calm Calm - N/A   Mostly Cloudy
3:56 AM 26.6 °F - 21.2 °F 80% 30.25 in 10.0 mi Calm Calm - N/A   Mostly Cloudy
4:15 AM 26.6 °F - 23.0 °F 86% 30.25 in 10.0 mi Calm Calm - N/A   Mostly Cloudy
4:36 AM 28.4 °F - 24.8 °F 86% 30.25 in 10.0 mi Calm Calm - N/A   Mostly Cloudy
4:56 AM 30.2 °F - 24.8 °F 80% 30.25 in 10.0 mi Calm Calm - N/A   Mostly Cloudy
5:15 AM 30.2 °F - 24.8 °F 80% 30.24 in 10.0 mi Calm Calm - N/A   Mostly Cloudy
5:36 AM 30.2 °F - 24.8 °F 80% 30.24 in 10.0 mi Calm Calm - N/A   Overcast
5:56 AM 30.2 °F - 24.8 °F 80% 30.24 in 10.0 mi Calm Calm - N/A   Mostly Cloudy
6:15 AM 30.2 °F - 24.8 °F 80% 30.24 in 10.0 mi Calm Calm - N/A   Mostly Cloudy
6:36 AM 30.2 °F - 24.8 °F 80% 30.24 in 10.0 mi Calm Calm - N/A   Mostly Cloudy
6:56 AM 30.2 °F 26.7 °F 24.8 °F 80% 30.24 in 10.0 mi East 3.5 mph - N/A   Mostly Cloudy
7:16 AM 30.2 °F - 24.8 °F 80% 30.24 in 10.0 mi Calm Calm - N/A   Overcast
7:35 AM 30.2 °F - 24.8 °F 80% 30.25 in 10.0 mi Calm Calm - N/A   Mostly Cloudy
7:56 AM 32.0 °F 28.7 °F 26.6 °F 80% 30.25 in 10.0 mi East 3.5 mph - N/A   Mostly Cloudy
8:15 AM 32.0 °F 27.5 °F 26.6 °F 80% 30.25 in 10.0 mi ESE 4.6 mph - N/A   Mostly Cloudy
8:35 AM 32.0 °F 27.5 °F 26.6 °F 80% 30.25 in 10.0 mi ESE 4.6 mph - N/A   Mostly Cloudy
8:56 AM 33.8 °F 29.6 °F 26.6 °F 75% 30.25 in 10.0 mi ESE 4.6 mph - N/A   Overcast
9:15 AM 33.8 °F 28.6 °F 28.4 °F 81% 30.24 in 10.0 mi ESE 5.8 mph - N/A   Overcast
9:35 AM 35.6 °F 30.7 °F 28.4 °F 75% 30.24 in 10.0 mi SE 5.8 mph - N/A   Overcast
9:56 AM 35.6 °F 31.7 °F 28.4 °F 75% 30.24 in 10.0 mi SE 4.6 mph - N/A   Overcast
10:16 AM 37.4 °F 32.8 °F 30.2 °F 75% 30.23 in 10.0 mi SE 5.8 mph - N/A   Overcast
10:35 AM 37.4 °F 32.1 °F 30.2 °F 75% 30.23 in 10.0 mi SE 6.9 mph - N/A   Mostly Cloudy
10:55 AM 39.2 °F 35.0 °F 32.0 °F 75% 30.23 in 10.0 mi SSE 5.8 mph - N/A   Mostly Cloudy
11:16 AM 39.2 °F 34.2 °F 32.0 °F 75% 30.23 in 10.0 mi SSE 6.9 mph - N/A   Overcast
11:56 AM 42.8 °F 39.3 °F 33.8 °F 70% 30.21 in 10.0 mi SSE 5.8 mph - N/A   Scattered Clouds
12:15 PM 42.8 °F 38.6 °F 33.8 °F 70% 30.21 in 10.0 mi SE 6.9 mph - N/A   Scattered Clouds
12:36 PM 42.8 °F 38.0 °F 35.6 °F 76% 30.21 in 10.0 mi SSE 8.1 mph - N/A   Mostly Cloudy
12:55 PM 44.6 °F 38.8 °F 35.6 °F 71% 30.20 in 10.0 mi South 11.5 mph - N/A   Scattered Clouds
1:15 PM 44.6 °F 39.7 °F 35.6 °F 71% 30.20 in 10.0 mi SSE 9.2 mph - N/A   Scattered Clouds
1:36 PM 44.6 °F 39.2 °F 35.6 °F 71% 30.20 in 10.0 mi South 10.4 mph - N/A   Scattered Clouds
1:55 PM 44.6 °F 39.2 °F 35.6 °F 71% 30.19 in 10.0 mi SSE 10.4 mph - N/A   Scattered Clouds
2:16 PM 42.8 °F 38.0 °F 35.6 °F 76% 30.18 in 10.0 mi SSE 8.1 mph - N/A   Scattered Clouds
2:36 PM 42.8 °F 38.0 °F 35.6 °F 76% 30.17 in 10.0 mi SSE 8.1 mph - N/A   Scattered Clouds
2:55 PM 44.6 °F 39.2 °F 35.6 °F 71% 30.16 in 10.0 mi South 10.4 mph - N/A   Scattered Clouds
3:16 PM 44.6 °F 39.2 °F 35.6 °F 71% 30.16 in 10.0 mi SSE 10.4 mph - N/A   Clear
3:35 PM 44.6 °F 39.7 °F 35.6 °F 71% 30.15 in 10.0 mi SSE 9.2 mph - N/A   Clear
3:55 PM 46.4 °F 41.9 °F 37.4 °F 71% 30.14 in 10.0 mi SSE 9.2 mph - N/A   Clear
4:16 PM 46.4 °F 41.9 °F 37.4 °F 71% 30.13 in 10.0 mi SSE 9.2 mph - N/A   Clear
4:35 PM 46.4 °F 41.9 °F 37.4 °F 71% 30.13 in 10.0 mi SSE 9.2 mph - N/A   Scattered Clouds
4:56 PM 46.4 °F 42.4 °F 37.4 °F 71% 30.12 in 10.0 mi SSE 8.1 mph - N/A   Mostly Cloudy
5:16 PM 46.4 °F 42.4 °F 37.4 °F 71% 30.12 in 10.0 mi SE 8.1 mph - N/A   Scattered Clouds
5:35 PM 46.4 °F 41.9 °F 37.4 °F 71% 30.12 in 10.0 mi SE 9.2 mph - N/A   Mostly Cloudy
5:56 PM 46.4 °F 42.9 °F 37.4 °F 71% 30.11 in 10.0 mi SSE 6.9 mph - N/A   Scattered Clouds
6:16 PM 46.4 °F 42.4 °F 37.4 °F 71% 30.11 in 10.0 mi SSE 8.1 mph - N/A   Scattered Clouds
6:35 PM 46.4 °F 44.3 °F 37.4 °F 71% 30.11 in 10.0 mi SE 4.6 mph - N/A   Clear
6:56 PM 44.6 °F 41.4 °F 35.6 °F 71% 30.10 in 10.0 mi ESE 5.8 mph - N/A   Clear
7:15 PM 44.6 °F 42.2 °F 35.6 °F 71% 30.10 in 10.0 mi ESE 4.6 mph - N/A   Clear
7:35 PM 42.8 °F 41.1 °F 35.6 °F 76% 30.10 in 10.0 mi SE 3.5 mph - N/A   Clear
7:56 PM 42.8 °F 39.3 °F 35.6 °F 76% 30.09 in 10.0 mi SE 5.8 mph - N/A   Clear
8:15 PM 42.8 °F 41.1 °F 35.6 °F 76% 30.09 in 10.0 mi SE 3.5 mph - N/A   Clear
8:35 PM 41.0 °F 38.0 °F 33.8 °F 76% 30.09 in 10.0 mi SE 4.6 mph - N/A   Clear
8:55 PM 41.0 °F 38.0 °F 35.6 °F 81% 30.09 in 10.0 mi SE 4.6 mph - N/A   Mostly Cloudy
9:15 PM 41.0 °F 37.1 °F 35.6 °F 81% 30.08 in 10.0 mi SE 5.8 mph - N/A   Scattered Clouds
9:36 PM 41.0 °F 37.1 °F 33.8 °F 76% 30.08 in 10.0 mi SE 5.8 mph - N/A   Clear
9:55 PM 41.0 °F 37.1 °F 35.6 °F 81% 30.08 in 10.0 mi SE 5.8 mph - N/A   Scattered Clouds
10:16 PM 41.0 °F 37.1 °F 35.6 °F 81% 30.07 in 10.0 mi SE 5.8 mph - N/A Rain Light Rain
10:36 PM 41.0 °F 37.1 °F 35.6 °F 81% 30.07 in 10.0 mi SSE 5.8 mph - N/A Rain Light Rain
10:55 PM 39.2 °F 35.9 °F 35.6 °F 87% 30.07 in 7.0 mi South 4.6 mph - N/A Rain Light Rain
11:16 PM 39.2 °F 35.9 °F 35.6 °F 87% 30.06 in 5.0 mi SSE 4.6 mph - 0.01 in Rain Light Rain
11:35 PM 39.2 °F 37.0 °F 35.6 °F 87% 30.05 in 7.0 mi SE 3.5 mph - 0.01 in Rain Light Rain
11:55 PM 39.2 °F 35.9 °F 35.6 °F 87% 30.04 in 7.0 mi SE 4.6 mph - 0.01 in Rain Rain